When you browse on this site, cookies collect data to enhance your experience and personalize the content and advertising you see.
Visit our Privacy Policy to learn more. By continuing to use the site, you agree to this use of cookies and data.
  • In Hungary
  • List of Countries
  • For 7 days
  • Water Temperature
  • Satellite Maps
  • Weather Map
  • News
  • Weather Widgets
  • user-avatar
    Login

    Hourly Weather Presidencia Roque Saenz Pena

    Today, 20 July, Saturday

    Time Temperature Precipitation Wind Pressure Humidity
    00:00 +18°C° 0 mm 2 mps 752 mmHg 97%
    01:00 +18°C° 0 mm 2 mps 751 mmHg 97%
    02:00 +18°C° 0 mm 2 mps 751 mmHg 96%
    03:00 +18°C° 0 mm 3 mps 751 mmHg 97%
    04:00 +18°C° 0 mm 3 mps 751 mmHg 97%
    05:00 +18°C° 0 mm 3 mps 750 mmHg 97%
    06:00 +18°C° 0 mm 3 mps 751 mmHg 96%
    07:00 +18°C° 0 mm 3 mps 751 mmHg 94%
    08:00 +19°C° 0 mm 4 mps 751 mmHg 92%
    09:00 +20°C° 0 mm 3 mps 751 mmHg 84%
    10:00 +22°C° 0 mm 3 mps 751 mmHg 76%
    11:00 +25°C° 0 mm 3 mps 751 mmHg 67%
    12:00 +27°C° 0 mm 4 mps 750 mmHg 61%
    13:00 +28°C° 0 mm 5 mps 749 mmHg 55%
    14:00 +30°C° 0 mm 5 mps 748 mmHg 49%
    15:00 +30°C° 0 mm 5 mps 747 mmHg 51%
    16:00 +29°C° 0 mm 4 mps 747 mmHg 54%
    17:00 +28°C° 0 mm 4 mps 746 mmHg 56%
    18:00 +27°C° 0 mm 4 mps 746 mmHg 58%
    19:00 +27°C° 0 mm 5 mps 746 mmHg 61%
    20:00 +26°C° 0 mm 5 mps 746 mmHg 63%
    21:00 +26°C° 0 mm 5 mps 746 mmHg 62%
    22:00 +26°C° 0 mm 5 mps 746 mmHg 62%
    23:00 +26°C° 0 mm 5 mps 746 mmHg 61%

    Tomorrow, 21 July, Sunday

    Time Temperature Precipitation Wind Pressure Humidity
    00:00 +26°C° 0 mm 5 mps 746 mmHg 60%
    01:00 +26°C° 0 mm 6 mps 745 mmHg 59%
    02:00 +26°C° 0 mm 6 mps 745 mmHg 58%
    03:00 +26°C° 0 mm 6 mps 744 mmHg 55%
    04:00 +26°C° 0 mm 6 mps 744 mmHg 52%
    05:00 +26°C° 0 mm 6 mps 744 mmHg 49%
    06:00 +26°C° 0 mm 7 mps 744 mmHg 49%
    07:00 +26°C° 0 mm 7 mps 744 mmHg 49%
    08:00 +27°C° 0 mm 7 mps 744 mmHg 49%
    09:00 +28°C° 0 mm 8 mps 744 mmHg 44%
    10:00 +31°C° 0 mm 9 mps 743 mmHg 40%
    11:00 +33°C° 0 mm 9 mps 743 mmHg 35%
    12:00 +34°C° 0 mm 9 mps 742 mmHg 34%
    13:00 +35°C° 0 mm 8 mps 741 mmHg 32%
    14:00 +37°C° 0 mm 8 mps 741 mmHg 31%
    15:00 +35°C° 0 mm 7 mps 741 mmHg 34%
    16:00 +34°C° 0 mm 5 mps 741 mmHg 38%
    17:00 +32°C° 0 mm 4 mps 741 mmHg 41%
    18:00 +30°C° 0 mm 4 mps 741 mmHg 43%
    19:00 +30°C° 0 mm 4 mps 741 mmHg 45%
    20:00 +29°C° 0 mm 4 mps 741 mmHg 47%
    21:00 +28°C° 0 mm 4 mps 742 mmHg 47%
    22:00 +28°C° 0 mm 4 mps 742 mmHg 48%
    23:00 +27°C° 0 mm 3 mps 743 mmHg 49%

    Day after tomorrow, 22 July, Monday

    Time Temperature Precipitation Wind Pressure Humidity
    00:00 +27°C° 0 mm 3 mps 743 mmHg 49%
    01:00 +27°C° 0 mm 3 mps 743 mmHg 50%
    02:00 +26°C° 0 mm 3 mps 743 mmHg 51%
    03:00 +26°C° 0 mm 2 mps 744 mmHg 54%
    04:00 +25°C° 0 mm 2 mps 744 mmHg 56%
    05:00 +24°C° 0 mm 2 mps 745 mmHg 59%
    06:00 +22°C° 0 mm 3 mps 745 mmHg 67%
    07:00 +21°C° 0 mm 4 mps 746 mmHg 76%
    08:00 +20°C° 0 mm 4 mps 747 mmHg 84%
    09:00 +20°C° 0 mm 4 mps 748 mmHg 82%
    10:00 +20°C° 0 mm 5 mps 748 mmHg 79%
    11:00 +21°C° 0 mm 5 mps 749 mmHg 77%
    12:00 +20°C° 0 mm 5 mps 748 mmHg 76%
    13:00 +19°C° 0 mm 5 mps 748 mmHg 76%
    14:00 +17°C° 0 mm 5 mps 748 mmHg 75%
    15:00 +16°C° 0 mm 5 mps 749 mmHg 76%
    16:00 +14°C° 0 mm 5 mps 749 mmHg 76%
    17:00 +13°C° 0 mm 5 mps 750 mmHg 77%
    18:00 +13°C° 0 mm 5 mps 750 mmHg 77%
    19:00 +12°C° 0 mm 5 mps 751 mmHg 77%
    20:00 +12°C° 0 mm 5 mps 751 mmHg 78%
    21:00 +10°C° 0.1 mm 5 mps 752 mmHg 79%
    22:00 +10°C° 0.1 mm 5 mps 752 mmHg 80%
    23:00 +10°C° 0.1 mm 5 mps 752 mmHg 81%

    23 July, Tuesday

    Time Temperature Precipitation Wind Pressure Humidity
    00:00 +11°C° 0.1 mm 4 mps 752 mmHg 80%
    01:00 +11°C° 0.1 mm 4 mps 752 mmHg 79%
    02:00 +11°C° 0.1 mm 4 mps 752 mmHg 78%
    03:00 +10°C° 0 mm 4 mps 752 mmHg 78%
    04:00 +10°C° 0 mm 4 mps 752 mmHg 77%
    05:00 +10°C° 0 mm 4 mps 752 mmHg 77%
    06:00 +10°C° 0.2 mm 4 mps 753 mmHg 78%
    07:00 +10°C° 0.2 mm 4 mps 754 mmHg 79%
    08:00 +10°C° 0.2 mm 4 mps 754 mmHg 80%
    09:00 +8°C° 0.3 mm 4 mps 755 mmHg 80%
    10:00 +8°C° 0.3 mm 4 mps 755 mmHg 81%
    11:00 +8°C° 0.3 mm 4 mps 756 mmHg 81%
    12:00 +8°C° 0 mm 5 mps 756 mmHg 80%
    13:00 +8°C° 0 mm 5 mps 756 mmHg 79%
    14:00 +8°C° 0 mm 5 mps 755 mmHg 79%
    15:00 +8°C° 0 mm 5 mps 755 mmHg 76%
    16:00 +8°C° 0 mm 5 mps 756 mmHg 74%
    17:00 +8°C° 0 mm 4 mps 756 mmHg 72%
    18:00 +8°C° 0 mm 4 mps 757 mmHg 73%
    19:00 +8°C° 0 mm 4 mps 757 mmHg 73%
    20:00 +8°C° 0 mm 4 mps 758 mmHg 73%
    21:00 +7°C° 0.9 mm 4 mps 758 mmHg 77%
    22:00 +7°C° 0.9 mm 4 mps 758 mmHg 81%
    23:00 +8°C° 0.9 mm 3 mps 758 mmHg 85%

    24 July, Wednesday

    Time Temperature Precipitation Wind Pressure Humidity
    00:00 +8°C° 1.2 mm 3 mps 759 mmHg 84%
    01:00 +8°C° 1.2 mm 3 mps 759 mmHg 83%
    02:00 +8°C° 1.2 mm 3 mps 759 mmHg 83%
    03:00 +8°C° 0.1 mm 3 mps 759 mmHg 80%
    04:00 +7°C° 0.1 mm 4 mps 759 mmHg 77%
    05:00 +7°C° 0.1 mm 4 mps 759 mmHg 75%
    06:00 +7°C° 0 mm 4 mps 760 mmHg 74%
    07:00 +8°C° 0 mm 3 mps 760 mmHg 73%
    08:00 +9°C° 0 mm 3 mps 761 mmHg 73%
    09:00 +8°C° 0 mm 4 mps 762 mmHg 66%
    10:00 +10°C° 0 mm 4 mps 762 mmHg 59%
    11:00 +11°C° 0 mm 4 mps 762 mmHg 52%
    12:00 +12°C° 0 mm 4 mps 762 mmHg 49%
    13:00 +12°C° 0 mm 4 mps 762 mmHg 46%
    14:00 +12°C° 0 mm 4 mps 762 mmHg 44%
    15:00 +12°C° 0 mm 4 mps 762 mmHg 45%
    16:00 +11°C° 0 mm 3 mps 762 mmHg 46%
    17:00 +10°C° 0 mm 3 mps 762 mmHg 48%
    18:00 +10°C° 0 mm 3 mps 762 mmHg 49%
    19:00 +10°C° 0 mm 2 mps 762 mmHg 50%
    20:00 +10°C° 0 mm 2 mps 763 mmHg 51%
    21:00 +10°C° 0 mm 2 mps 763 mmHg 52%
    22:00 +9°C° 0 mm 2 mps 763 mmHg 53%
    23:00 +9°C° 0 mm 2 mps 763 mmHg 54%

    25 July, Thursday

    Time Temperature Precipitation Wind Pressure Humidity
    00:00 +9°C° 0 mm 2 mps 763 mmHg 56%
    01:00 +8°C° 0 mm 2 mps 762 mmHg 58%
    02:00 +8°C° 0 mm 2 mps 762 mmHg 60%
    03:00 +7°C° 0 mm 2 mps 762 mmHg 64%
    04:00 +6°C° 0 mm 2 mps 762 mmHg 69%
    05:00 +5°C° 0 mm 2 mps 761 mmHg 74%
    06:00 +5°C° 0 mm 2 mps 762 mmHg 74%
    07:00 +6°C° 0 mm 2 mps 762 mmHg 73%
    08:00 +6°C° 0 mm 2 mps 762 mmHg 73%
    09:00 +8°C° 0 mm 2 mps 762 mmHg 66%
    10:00 +12°C° 0 mm 2 mps 762 mmHg 60%
    11:00 +14°C° 0 mm 2 mps 762 mmHg 53%
    12:00 +15°C° 0 mm 2 mps 761 mmHg 49%
    13:00 +16°C° 0 mm 2 mps 761 mmHg 44%
    14:00 +17°C° 0 mm 2 mps 760 mmHg 39%
    15:00 +16°C° 0 mm 2 mps 760 mmHg 44%
    16:00 +15°C° 0 mm 2 mps 759 mmHg 49%
    17:00 +14°C° 0 mm 2 mps 759 mmHg 54%
    18:00 +13°C° 0 mm 1 mps 759 mmHg 62%
    19:00 +11°C° 0 mm 1 mps 759 mmHg 70%
    20:00 +9°C° 0 mm 1 mps 760 mmHg 78%
    21:00 +9°C° 0 mm 1 mps 760 mmHg 83%
    22:00 +9°C° 0 mm 1 mps 760 mmHg 88%
    23:00 +8°C° 0 mm 1 mps 760 mmHg 93%
    Show more